Voltar ao catálogo

STARLINK-30466

AtivoComunicaçõesVLEO
NORAD 57904·PAYLOAD·🇺🇸 United States

Lançado Sep 20, 2023 de Cape Canaveral Space Force Station

Loading…

Próximas Passagens (próximas 24 horas)

TLE

AtualizadoSource: CelesTrak SupGP

Época: Sep 14, 2026, 22:00 UTC

1 57904C 23146P   26257.91715278 -.00072370  00000+0 -26212-2 0  2575
2 57904  43.0036 325.8062 0001518 266.1690  74.9783 15.27614289    18

Acompanhe STARLINK-30466 em tempo real com AllMySat

Download on the App Store